Location: Casilda
(33.0440°S, 61.1680°W)
Time: 00:30:21
(UTC-03:00)

ISS - Pass Details

Date: 13 January 2018
Orbit: 402 x 407 km, 51.6° (Epoch: 24 January)

Event Time Altitude Azimuth Distance (km) Brightness Sun altitude
Rises 20:53:58 0° 245° (WSW) 2,341 2.4 -7.6°
Reaches altitude 10° 20:56:36 10° 266° (W) 1,471 0.1 -8.1°
Maximum altitude 20:58:45 16° 307° (NW) 1,143 -1.3 -8.5°
Drops below altitude 10° 21:00:53 10° 348° (NNW) 1,456 -1.2 -8.8°
Enters shadow 21:02:45 - 6° (N) 2,045 -0.6 -9.2°
